When you browse on this site, cookies collect data to enhance your experience and personalize the content and advertising you see.
Visit our Privacy Policy to learn more. By continuing to use the site, you agree to this use of cookies and data.
  • en Belgique
  • Liste des pays
  • À 7 jours
  • Température de l'eau
  • Carte météo
  • Widgets météo
  • user-avatar
    Se connecter

    Météo par heure à Lukotino

    Ce jour, 5 Juin, Vendredi

    Heure Température Précipitation Vent Pression Humidité
    00:00 +12°C° 0.1 mm 2 m/s 740 mmHg 97%
    01:00 +10°C° 0.1 mm 2 m/s 741 mmHg 97%
    02:00 +12°C° 0 mm 2 m/s 741 mmHg 98%
    03:00 +11°C° 0.1 mm 3 m/s 741 mmHg 97%
    04:00 +11°C° 0.1 mm 3 m/s 741 mmHg 96%
    05:00 +11°C° 0.1 mm 3 m/s 741 mmHg 96%
    06:00 +12°C° 0 mm 3 m/s 742 mmHg 90%
    07:00 +13°C° 0 mm 4 m/s 742 mmHg 85%
    08:00 +15°C° 0 mm 4 m/s 743 mmHg 79%
    09:00 +17°C° 0.2 mm 4 m/s 743 mmHg 74%
    10:00 +18°C° 0.2 mm 4 m/s 743 mmHg 68%
    11:00 +19°C° 0.2 mm 4 m/s 743 mmHg 62%
    12:00 +19°C° 0.4 mm 4 m/s 743 mmHg 62%
    13:00 +19°C° 0.4 mm 4 m/s 743 mmHg 61%
    14:00 +19°C° 0.4 mm 4 m/s 743 mmHg 61%
    15:00 +19°C° 0.1 mm 4 m/s 743 mmHg 62%
    16:00 +19°C° 0.1 mm 3 m/s 743 mmHg 64%
    17:00 +19°C° 0.1 mm 3 m/s 743 mmHg 66%
    18:00 +17°C° 0 mm 2 m/s 744 mmHg 74%
    19:00 +16°C° 0 mm 2 m/s 744 mmHg 83%
    20:00 +14°C° 0 mm 1 m/s 744 mmHg 91%
    21:00 +13°C° 0 mm 1 m/s 744 mmHg 93%
    22:00 +13°C° 0 mm 1 m/s 744 mmHg 95%
    23:00 +12°C° 0 mm 1 m/s 744 mmHg 97%

    Demain, 6 Juin, Samedi

    Heure Température Précipitation Vent Pression Humidité
    00:00 +12°C° 0 mm 1 m/s 745 mmHg 97%
    01:00 +11°C° 0 mm 1 m/s 745 mmHg 98%
    02:00 +11°C° 0 mm 1 m/s 745 mmHg 98%
    03:00 +10°C° 0 mm 2 m/s 745 mmHg 97%
    04:00 +12°C° 0 mm 2 m/s 745 mmHg 96%
    05:00 +12°C° 0 mm 2 m/s 745 mmHg 96%
    06:00 +13°C° 0 mm 2 m/s 745 mmHg 90%
    07:00 +13°C° 0 mm 3 m/s 745 mmHg 84%
    08:00 +16°C° 0 mm 3 m/s 745 mmHg 78%
    09:00 +18°C° 0 mm 3 m/s 745 mmHg 71%
    10:00 +19°C° 0 mm 4 m/s 745 mmHg 63%
    11:00 +21°C° 0 mm 4 m/s 745 mmHg 56%
    12:00 +22°C° 0 mm 4 m/s 745 mmHg 54%
    13:00 +23°C° 0 mm 4 m/s 745 mmHg 52%
    14:00 +23°C° 0 mm 4 m/s 745 mmHg 49%
    15:00 +23°C° 0.2 mm 4 m/s 745 mmHg 58%
    16:00 +22°C° 0.2 mm 4 m/s 744 mmHg 67%
    17:00 +21°C° 0.2 mm 4 m/s 744 mmHg 76%
    18:00 +20°C° 0.7 mm 4 m/s 745 mmHg 83%
    19:00 +19°C° 0.7 mm 3 m/s 745 mmHg 89%
    20:00 +18°C° 0.7 mm 2 m/s 745 mmHg 96%
    21:00 +17°C° 0 mm 2 m/s 745 mmHg 96%
    22:00 +16°C° 0 mm 2 m/s 746 mmHg 97%
    23:00 +16°C° 0 mm 2 m/s 746 mmHg 98%

    Après-demain, 7 Juin, Dimanche

    Heure Température Précipitation Vent Pression Humidité
    00:00 +15°C° 0 mm 2 m/s 747 mmHg 98%
    01:00 +15°C° 0 mm 2 m/s 747 mmHg 98%
    02:00 +15°C° 0 mm 1 m/s 748 mmHg 98%
    03:00 +15°C° 0 mm 1 m/s 748 mmHg 97%
    04:00 +15°C° 0 mm 1 m/s 749 mmHg 96%
    05:00 +15°C° 0 mm 2 m/s 749 mmHg 96%
    06:00 +17°C° 0 mm 2 m/s 750 mmHg 88%
    07:00 +19°C° 0 mm 1 m/s 751 mmHg 80%
    08:00 +21°C° 0 mm 1 m/s 751 mmHg 73%
    09:00 +21°C° 0 mm 2 m/s 751 mmHg 62%
    10:00 +23°C° 0 mm 2 m/s 752 mmHg 52%
    11:00 +25°C° 0 mm 2 m/s 752 mmHg 42%
    12:00 +25°C° 0 mm 2 m/s 752 mmHg 40%
    13:00 +26°C° 0 mm 2 m/s 752 mmHg 39%
    14:00 +26°C° 0 mm 1 m/s 752 mmHg 38%
    15:00 +26°C° 0 mm 1 m/s 752 mmHg 41%
    16:00 +26°C° 0 mm 1 m/s 752 mmHg 45%
    17:00 +26°C° 0 mm 1 m/s 752 mmHg 48%
    18:00 +23°C° 0 mm 1 m/s 752 mmHg 55%
    19:00 +19°C° 0 mm 0 m/s 752 mmHg 63%
    20:00 +17°C° 0 mm 0 m/s 752 mmHg 70%
    21:00 +16°C° 0 mm 0 m/s 752 mmHg 72%
    22:00 +16°C° 0 mm 1 m/s 753 mmHg 74%
    23:00 +16°C° 0 mm 1 m/s 753 mmHg 76%

    8 Juin, Lundi

    Heure Température Précipitation Vent Pression Humidité
    00:00 +15°C° 0 mm 1 m/s 753 mmHg 77%
    01:00 +15°C° 0 mm 1 m/s 753 mmHg 78%
    02:00 +14°C° 0 mm 1 m/s 753 mmHg 79%
    03:00 +15°C° 0 mm 1 m/s 753 mmHg 79%
    04:00 +16°C° 0 mm 1 m/s 753 mmHg 79%
    05:00 +18°C° 0 mm 1 m/s 753 mmHg 78%
    06:00 +20°C° 0 mm 1 m/s 753 mmHg 74%
    07:00 +21°C° 0 mm 2 m/s 753 mmHg 69%
    08:00 +24°C° 0 mm 2 m/s 753 mmHg 65%
    09:00 +25°C° 0 mm 2 m/s 753 mmHg 61%
    10:00 +26°C° 0 mm 2 m/s 753 mmHg 58%
    11:00 +27°C° 0 mm 3 m/s 753 mmHg 55%
    12:00 +27°C° 0.2 mm 3 m/s 753 mmHg 59%
    13:00 +27°C° 0.2 mm 3 m/s 752 mmHg 63%
    14:00 +27°C° 0.2 mm 3 m/s 752 mmHg 67%
    15:00 +27°C° 0.6 mm 3 m/s 752 mmHg 72%
    16:00 +26°C° 0.6 mm 3 m/s 752 mmHg 77%
    17:00 +25°C° 0.6 mm 3 m/s 752 mmHg 82%
    18:00 +24°C° 0.1 mm 3 m/s 752 mmHg 85%
    19:00 +23°C° 0.1 mm 2 m/s 752 mmHg 88%
    20:00 +21°C° 0.1 mm 2 m/s 752 mmHg 91%
    21:00 +20°C° 0 mm 2 m/s 752 mmHg 92%
    22:00 +19°C° 0 mm 2 m/s 752 mmHg 93%
    23:00 +18°C° 0 mm 2 m/s 752 mmHg 94%

    9 Juin, Mardi

    Heure Température Précipitation Vent Pression Humidité
    00:00 +17°C° 0 mm 2 m/s 752 mmHg 95%
    01:00 +17°C° 0 mm 2 m/s 752 mmHg 96%
    02:00 +17°C° 0 mm 2 m/s 752 mmHg 96%
    03:00 +17°C° 0 mm 2 m/s 753 mmHg 94%
    04:00 +18°C° 0 mm 2 m/s 753 mmHg 92%
    05:00 +18°C° 0 mm 2 m/s 753 mmHg 90%
    06:00 +20°C° 0 mm 2 m/s 753 mmHg 83%
    07:00 +22°C° 0 mm 3 m/s 753 mmHg 76%
    08:00 +24°C° 0 mm 3 m/s 753 mmHg 68%
    09:00 +26°C° 0 mm 3 m/s 753 mmHg 64%
    10:00 +27°C° 0 mm 3 m/s 753 mmHg 59%
    11:00 +28°C° 0 mm 3 m/s 753 mmHg 54%
    12:00 +28°C° 0 mm 3 m/s 753 mmHg 54%
    13:00 +28°C° 0 mm 3 m/s 753 mmHg 53%
    14:00 +28°C° 0 mm 3 m/s 752 mmHg 53%
    15:00 +28°C° 0 mm 3 m/s 752 mmHg 55%
    16:00 +28°C° 0 mm 3 m/s 752 mmHg 58%
    17:00 +27°C° 0 mm 3 m/s 752 mmHg 60%
    18:00 +25°C° 0 mm 2 m/s 752 mmHg 69%
    19:00 +24°C° 0 mm 2 m/s 752 mmHg 78%
    20:00 +21°C° 0 mm 2 m/s 752 mmHg 87%
    21:00 +20°C° 0 mm 2 m/s 752 mmHg 90%
    22:00 +19°C° 0 mm 2 m/s 753 mmHg 93%
    23:00 +19°C° 0 mm 1 m/s 753 mmHg 96%

    10 Juin, Mercredi

    Heure Température Précipitation Vent Pression Humidité
    00:00 +18°C° 0 mm 1 m/s 753 mmHg 96%
    01:00 +18°C° 0 mm 1 m/s 753 mmHg 96%
    02:00 +18°C° 0 mm 1 m/s 752 mmHg 97%
    03:00 +18°C° 0 mm 1 m/s 752 mmHg 94%
    04:00 +19°C° 0 mm 1 m/s 753 mmHg 92%
    05:00 +20°C° 0 mm 1 m/s 753 mmHg 90%
    06:00 +21°C° 0 mm 1 m/s 753 mmHg 82%
    07:00 +23°C° 0 mm 1 m/s 753 mmHg 74%
    08:00 +25°C° 0 mm 1 m/s 753 mmHg 67%
    09:00 +26°C° 0 mm 1 m/s 752 mmHg 61%
    10:00 +28°C° 0 mm 1 m/s 752 mmHg 55%
    11:00 +29°C° 0 mm 1 m/s 752 mmHg 50%
    12:00 +29°C° 0 mm 1 m/s 752 mmHg 48%
    13:00 +30°C° 0 mm 1 m/s 752 mmHg 45%
    14:00 +30°C° 0 mm 1 m/s 751 mmHg 43%
    15:00 +29°C° 0 mm 1 m/s 751 mmHg 48%
    16:00 +29°C° 0 mm 1 m/s 751 mmHg 52%
    17:00 +28°C° 0 mm 1 m/s 751 mmHg 56%
    18:00 +26°C° 0 mm 1 m/s 751 mmHg 66%
    19:00 +24°C° 0 mm 1 m/s 751 mmHg 75%
    20:00 +21°C° 0 mm 2 m/s 751 mmHg 85%
    21:00 +20°C° 0 mm 2 m/s 751 mmHg 87%
    22:00 +21°C° 0 mm 1 m/s 751 mmHg 89%
    23:00 +20°C° 0 mm 1 m/s 751 mmHg 91%
    Voir plus